Weather History for Frankfort, KY

Change the Weather History Date:

Wednesday, November 21, 2012

  Actual Average Record
Temperature  
Mean Temperature 50 °F 44 °F  
Max Temperature 65 °F 54 °F 77 °F (1934)
Min Temperature 35 °F 34 °F 15 °F (1951)
Degree Days  
Heating Degree Days 15 21  
Month to date heating degree days 450 361  
Since 1 July heating degree days 851 702  
Cooling Degree Days 0 0  
Month to date cooling degree days 0 0  
Year to date cooling degree days 1310 1154  
Moisture  
Dew Point 38 °F    
Average Humidity 66    
Maximum Humidity 92    
Minimum Humidity 40    
Precipitation  
Precipitation 0.00 in 0.12 in 1.61 in (1900)
Month to date precipitation 1.02 2.50  
Year to date precipitation 34.45 40.38  
Sea Level Pressure  
Sea Level Pressure 30.19 in    
Wind  
Wind Speed 1 mph (NNW)    
Max Wind Speed 6 mph    
Max Gust Speed 8 mph    
Visibility 10 miles    
Events      
T = Trace of Precipitation, MM = Missing Value Source: NWS Daily Summary

Daily Weather History Graph

Daily Weather History Graph

Search for Another Location

Airport:

Trip Planner

Search our weather history database for the weather conditions in past years. The results will help you decide how hot, cold, wet, or windy it might be!

Date:

Astronomy

Nov. 21, 2012 Rise Set
Actual Time 7:27 AM EST 5:23 PM EST
Civil Twilight 6:59 AM EST 5:51 PM EST
Nautical Twilight 6:26 AM EST 6:24 PM EST
Astronomical Twilight 5:55 AM EST 6:55 PM EST
Moon 1:34 PM EST (11/21) 12:51 AM EST (11/21)
Length of Visible Light 10h 52m
Length of Day
9h 55m
First Quarter, 61% of the Moon is Illuminated
Nov 21
First Quarter
Nov 28
Full
Dec 6
Last Quarter
Dec 13
New
Dec 20
First Quarter

Hourly Weather History & Observations

Time (EST) Temp. Windchill Dew Point Humidity Pressure Visibility Wind Dir Wind Speed Gust Speed Precip Events Conditions
12:53 AM 45.0 °F - 39.0 °F 80% 30.11 in 10.0 mi Calm Calm - N/A   Clear
1:53 AM 42.1 °F - 37.9 °F 85% 30.10 in 10.0 mi Calm Calm - N/A   Clear
2:53 AM 39.0 °F 36.8 °F 37.0 °F 93% 30.12 in 10.0 mi NNW 3.5 mph - N/A   Clear
3:53 AM 37.9 °F 35.5 °F 35.1 °F 89% 30.13 in 10.0 mi NW 3.5 mph - N/A   Clear
4:53 AM 39.0 °F - 36.0 °F 89% 30.14 in 10.0 mi Calm Calm - N/A   Mostly Cloudy
5:53 AM 37.9 °F - 35.1 °F 89% 30.16 in 10.0 mi Calm Calm - N/A   Clear
6:53 AM 35.1 °F - 34.0 °F 96% 30.18 in 9.0 mi Calm Calm - N/A   Scattered Clouds
7:53 AM 39.0 °F - 37.0 °F 93% 30.19 in 9.0 mi Calm Calm - N/A   Overcast
8:53 AM 46.0 °F - 41.0 °F 83% 30.21 in 10.0 mi Calm Calm - N/A   Overcast
9:53 AM 48.9 °F - 39.0 °F 69% 30.22 in 10.0 mi Calm Calm - N/A   Overcast
10:53 AM 53.1 °F - 41.0 °F 64% 30.23 in 10.0 mi Calm Calm - N/A   Overcast
11:53 AM 55.9 °F - 41.0 °F 57% 30.22 in 10.0 mi NW 4.6 mph - N/A   Overcast
12:53 PM 62.1 °F - 39.9 °F 44% 30.20 in 10.0 mi Calm Calm - N/A   Partly Cloudy
1:53 PM 63.0 °F - 39.0 °F 41% 30.19 in 10.0 mi ESE 3.5 mph - N/A   Clear
2:53 PM 63.0 °F - 39.0 °F 41% 30.19 in 10.0 mi Calm Calm - N/A   Clear
3:53 PM 64.0 °F - 39.0 °F 40% 30.19 in 10.0 mi Calm Calm - N/A   Clear
4:53 PM 61.0 °F - 37.9 °F 42% 30.19 in 10.0 mi Calm Calm - N/A   Clear
5:53 PM 52.0 °F - 37.9 °F 59% 30.20 in 10.0 mi Calm Calm - N/A   Clear
6:53 PM 46.0 °F - 37.9 °F 73% 30.22 in 10.0 mi Calm Calm - N/A   Clear
7:53 PM 45.0 °F - 37.9 °F 76% 30.22 in 10.0 mi Calm Calm - N/A   Clear
8:53 PM 42.1 °F - 37.0 °F 82% 30.21 in 10.0 mi Calm Calm - N/A   Clear
9:53 PM 39.9 °F - 35.1 °F 83% 30.22 in 10.0 mi Calm Calm - N/A   Clear
10:53 PM 39.0 °F - 35.1 °F 86% 30.22 in 9.0 mi Calm Calm - N/A   Clear
11:53 PM 37.0 °F - 34.0 °F 89% 30.21 in 8.0 mi Calm Calm - N/A   Clear